Regional Weather Roundup
Issued by NWS

Home | Current Version | Previous Version | Text Only | Print | Product List | Glossary Off
Versions: 1 2 3 4 5 6 7 8 9 10 11 12 13 14 15 16 17 18 19 20 21 22 23 24 25 26 27 28 29 30 31 32 33 34 35 36 37 38 39 40 41 42 43 44 45 46 47 48 49 50

341
ASUS43 KBIS 240502
RWRND

NORTH DAKOTA REGIONAL WEATHER ROUNDUP
NATIONAL WEATHER SERVICE BISMARCK ND
1200 AM CDT TUE APR 24 2018

NOTE: "FAIR" INDICATES FEW OR NO CLOUDS BELOW 12,000 FEET WITH NO
SIGNIFICANT WEATHER AND/OR OBSTRUCTIONS TO VISIBILITY.


NDZ001>003-009>011-017-240600-
NORTHWEST NORTH DAKOTA

CITY           SKY/WX    TMP DP  RH WIND       PRES   REMARKS
WILLISTON      MOCLDY    35  24  64 N5        30.37R
MINOT          CLOUDY    43  25  49 NW13      30.32R
$$

NDZ018>021-031>035-040>046-240600-
SOUTHWEST NORTH DAKOTA

CITY           SKY/WX    TMP DP  RH WIND       PRES   REMARKS
BISMARCK       LGT RAIN  45  41  86 N20       30.27R
DICKINSON      RAIN      37  34  89 NE14G24   30.32R
GARRISON         N/A     43  31  62 N6        30.31S
HETTINGER ARPT LGT SNOW  35  33  92 N20G32    30.30R FOG
$$

NDZ004>008-012>016-024-026-027-054-240600-
NORTHEAST NORTH DAKOTA

CITY           SKY/WX    TMP DP  RH WIND       PRES   REMARKS
GRAND FORKS    FAIR      46  39  76 N10       30.23R
DEVILS LAKE    CLOUDY    45  32  60 N16       30.29R
$$

NDZ022-023-025-028>030-036>039-047>053-240600-
SOUTHEAST NORTH DAKOTA

CITY           SKY/WX    TMP DP  RH WIND       PRES   REMARKS
FARGO          CLOUDY    50  40  68 NE3       30.19R
JAMESTOWN      CLOUDY    50  38  63 N14       30.22R
$$





USA.gov is the U.S. government's official web portal to all federal, state and local government web resources and services.